User: anonymous   Login
Location: Catstown
(52.4386°N, 7.2633°W)
Time: 19:14:49
(UTC+00:00)
Language:

NOSS 2-2 (D) - Orbit

View from above orbital plane
View from above orbital plane
View from above satellite
View from above satellite

Ground track
Ground track

The orbit data is extracted from the following two-line orbital elements,

1 21808U 91076D   20328.17832904 0.00000290  00000-0  51358-4 0    01
2 21808  63.3244  91.7044 0854591  40.7901 319.2099 13.41404660    03
Epoch (UTC): 23 November 2020 04:16:47
Eccentricity: 0.0854591
inclination: 63.3244°
perigee height: 464 km
apogee height: 1743 km
right ascension of ascending node: 91.7044°
argument of perigee: 40.7901°
revolutions per day: 13.41404660
mean anomaly at epoch: 319.2099°
orbit number at epoch: 0

The dashed part of the orbit path shows where the satellite is in the earth's shadow,  

DLR